• In Belarus
  • List of Countries
  • For 7 days
  • Water Temperature
  • Weather Map
  • Weather Widgets
  • user-avatar
    Login

    Hourly Weather Kyrdzhali

    Today, 18 September, Wednesday

    Time Temperature Precipitation Wind Pressure Humidity
    00:00 +19°C° 0 mm 2 mps 725 mmHg 65%
    01:00 +18°C° 0 mm 2 mps 725 mmHg 64%
    02:00 +18°C° 0 mm 2 mps 725 mmHg 65%
    03:00 +18°C° 0 mm 2 mps 725 mmHg 65%
    04:00 +17°C° 0 mm 2 mps 724 mmHg 65%
    05:00 +17°C° 0 mm 2 mps 724 mmHg 65%
    06:00 +20°C° 0 mm 1 mps 725 mmHg 58%
    07:00 +22°C° 0 mm 1 mps 725 mmHg 52%
    08:00 +24°C° 0 mm 1 mps 726 mmHg 46%
    09:00 +27°C° 0 mm 2 mps 726 mmHg 39%
    10:00 +29°C° 0 mm 2 mps 726 mmHg 32%
    11:00 +32°C° 0 mm 2 mps 726 mmHg 24%
    12:00 +33°C° 0 mm 3 mps 726 mmHg 24%
    13:00 +34°C° 0 mm 3 mps 726 mmHg 23%
    14:00 +34°C° 0 mm 3 mps 726 mmHg 23%
    15:00 +33°C° 0 mm 3 mps 726 mmHg 27%
    16:00 +30°C° 0 mm 3 mps 726 mmHg 32%
    17:00 +29°C° 0 mm 4 mps 726 mmHg 36%
    18:00 +27°C° 0 mm 3 mps 727 mmHg 38%
    19:00 +25°C° 0 mm 3 mps 727 mmHg 39%
    20:00 +22°C° 0 mm 3 mps 728 mmHg 41%
    21:00 +21°C° 0 mm 3 mps 728 mmHg 43%
    22:00 +20°C° 0 mm 3 mps 728 mmHg 46%
    23:00 +19°C° 0 mm 3 mps 728 mmHg 48%

    Tomorrow, 19 September, Thursday

    Time Temperature Precipitation Wind Pressure Humidity
    00:00 +18°C° 0 mm 3 mps 728 mmHg 55%
    01:00 +18°C° 0 mm 2 mps 729 mmHg 62%
    02:00 +17°C° 0 mm 2 mps 729 mmHg 68%
    03:00 +16°C° 0 mm 2 mps 729 mmHg 73%
    04:00 +16°C° 0 mm 2 mps 728 mmHg 79%
    05:00 +15°C° 0 mm 2 mps 728 mmHg 84%
    06:00 +16°C° 0 mm 2 mps 729 mmHg 81%
    07:00 +17°C° 0 mm 2 mps 729 mmHg 79%
    08:00 +18°C° 0 mm 3 mps 729 mmHg 77%
    09:00 +19°C° 0 mm 3 mps 729 mmHg 70%
    10:00 +20°C° 0 mm 3 mps 729 mmHg 64%
    11:00 +22°C° 0 mm 3 mps 730 mmHg 57%
    12:00 +22°C° 0 mm 3 mps 729 mmHg 54%
    13:00 +23°C° 0 mm 4 mps 729 mmHg 52%
    14:00 +25°C° 0 mm 4 mps 729 mmHg 49%
    15:00 +23°C° 0 mm 4 mps 728 mmHg 49%
    16:00 +23°C° 0 mm 4 mps 728 mmHg 50%
    17:00 +22°C° 0 mm 4 mps 728 mmHg 50%
    18:00 +20°C° 0 mm 3 mps 728 mmHg 59%
    19:00 +18°C° 0 mm 3 mps 728 mmHg 69%
    20:00 +16°C° 0 mm 2 mps 728 mmHg 78%
    21:00 +16°C° 0 mm 2 mps 728 mmHg 79%
    22:00 +16°C° 0 mm 2 mps 729 mmHg 81%
    23:00 +16°C° 0 mm 2 mps 729 mmHg 82%

    Day after tomorrow, 20 September, Friday

    Time Temperature Precipitation Wind Pressure Humidity
    00:00 +15°C° 0.4 mm 2 mps 729 mmHg 85%
    01:00 +15°C° 0.4 mm 2 mps 729 mmHg 88%
    02:00 +14°C° 0.4 mm 2 mps 729 mmHg 90%
    03:00 +14°C° 0.7 mm 2 mps 728 mmHg 92%
    04:00 +14°C° 0.7 mm 2 mps 728 mmHg 93%
    05:00 +14°C° 0.7 mm 2 mps 728 mmHg 95%
    06:00 +13°C° 0.2 mm 2 mps 729 mmHg 92%
    07:00 +12°C° 0.2 mm 3 mps 729 mmHg 89%
    08:00 +12°C° 0.2 mm 3 mps 729 mmHg 86%
    09:00 +14°C° 0 mm 3 mps 730 mmHg 76%
    10:00 +16°C° 0 mm 3 mps 730 mmHg 65%
    11:00 +17°C° 0 mm 4 mps 730 mmHg 54%
    12:00 +19°C° 0 mm 4 mps 730 mmHg 47%
    13:00 +20°C° 0 mm 4 mps 730 mmHg 39%
    14:00 +21°C° 0 mm 4 mps 730 mmHg 32%
    15:00 +21°C° 0 mm 5 mps 730 mmHg 30%
    16:00 +21°C° 0 mm 5 mps 730 mmHg 28%
    17:00 +21°C° 0 mm 5 mps 730 mmHg 26%
    18:00 +18°C° 0 mm 4 mps 730 mmHg 30%
    19:00 +16°C° 0 mm 3 mps 731 mmHg 34%
    20:00 +12°C° 0 mm 3 mps 731 mmHg 39%
    21:00 +13°C° 0 mm 2 mps 731 mmHg 43%
    22:00 +12°C° 0 mm 2 mps 732 mmHg 47%
    23:00 +10°C° 0 mm 2 mps 732 mmHg 51%

    21 September, Saturday

    Time Temperature Precipitation Wind Pressure Humidity
    00:00 +10°C° 0 mm 2 mps 732 mmHg 55%
    01:00 +10°C° 0 mm 2 mps 732 mmHg 58%
    02:00 +10°C° 0 mm 1 mps 733 mmHg 62%
    03:00 +10°C° 0 mm 1 mps 733 mmHg 63%
    04:00 +10°C° 0 mm 1 mps 733 mmHg 65%
    05:00 +9°C° 0 mm 1 mps 733 mmHg 66%
    06:00 +11°C° 0 mm 1 mps 733 mmHg 59%
    07:00 +12°C° 0 mm 1 mps 733 mmHg 53%
    08:00 +14°C° 0 mm 1 mps 734 mmHg 46%
    09:00 +16°C° 0 mm 2 mps 734 mmHg 40%
    10:00 +17°C° 0 mm 2 mps 734 mmHg 35%
    11:00 +19°C° 0 mm 2 mps 735 mmHg 29%
    12:00 +20°C° 0 mm 2 mps 734 mmHg 26%
    13:00 +21°C° 0 mm 3 mps 734 mmHg 24%
    14:00 +22°C° 0 mm 3 mps 734 mmHg 22%
    15:00 +22°C° 0 mm 3 mps 733 mmHg 22%
    16:00 +21°C° 0 mm 3 mps 733 mmHg 22%
    17:00 +21°C° 0 mm 3 mps 733 mmHg 22%
    18:00 +19°C° 0 mm 2 mps 733 mmHg 27%
    19:00 +16°C° 0 mm 2 mps 733 mmHg 32%
    20:00 +14°C° 0 mm 1 mps 733 mmHg 37%
    21:00 +13°C° 0 mm 1 mps 733 mmHg 43%
    22:00 +12°C° 0 mm 1 mps 733 mmHg 49%
    23:00 +11°C° 0 mm 1 mps 733 mmHg 54%

    22 September, Sunday

    Time Temperature Precipitation Wind Pressure Humidity
    00:00 +11°C° 0 mm 1 mps 733 mmHg 57%
    01:00 +10°C° 0 mm 1 mps 733 mmHg 60%
    02:00 +10°C° 0 mm 1 mps 732 mmHg 63%
    03:00 +9°C° 0 mm 1 mps 732 mmHg 64%
    04:00 +9°C° 0 mm 1 mps 732 mmHg 65%
    05:00 +9°C° 0 mm 1 mps 732 mmHg 67%
    06:00 +11°C° 0 mm 1 mps 732 mmHg 60%
    07:00 +12°C° 0 mm 1 mps 732 mmHg 54%
    08:00 +14°C° 0 mm 1 mps 732 mmHg 48%
    09:00 +16°C° 0 mm 1 mps 732 mmHg 42%
    10:00 +19°C° 0 mm 1 mps 732 mmHg 36%
    11:00 +21°C° 0 mm 2 mps 732 mmHg 30%
    12:00 +23°C° 0 mm 2 mps 732 mmHg 27%
    13:00 +24°C° 0 mm 2 mps 731 mmHg 25%
    14:00 +25°C° 0 mm 2 mps 731 mmHg 22%
    15:00 +25°C° 0 mm 2 mps 730 mmHg 23%
    16:00 +24°C° 0 mm 2 mps 730 mmHg 23%
    17:00 +24°C° 0 mm 2 mps 730 mmHg 24%
    18:00 +20°C° 0 mm 2 mps 730 mmHg 29%
    19:00 +19°C° 0 mm 1 mps 729 mmHg 35%
    20:00 +15°C° 0 mm 1 mps 729 mmHg 41%
    21:00 +15°C° 0 mm 1 mps 729 mmHg 43%
    22:00 +14°C° 0 mm 1 mps 729 mmHg 44%
    23:00 +13°C° 0 mm 1 mps 729 mmHg 46%

    23 September, Monday

    Time Temperature Precipitation Wind Pressure Humidity
    00:00 +13°C° 0 mm 1 mps 729 mmHg 50%
    01:00 +12°C° 0 mm 1 mps 729 mmHg 53%
    02:00 +12°C° 0 mm 1 mps 729 mmHg 57%
    03:00 +12°C° 0 mm 1 mps 729 mmHg 59%
    04:00 +10°C° 0 mm 0 mps 729 mmHg 61%
    05:00 +10°C° 0 mm 0 mps 728 mmHg 62%
    06:00 +12°C° 0 mm 0 mps 728 mmHg 57%
    07:00 +14°C° 0 mm 0 mps 728 mmHg 51%
    08:00 +16°C° 0 mm 0 mps 728 mmHg 45%
    09:00 +20°C° 0 mm 1 mps 728 mmHg 40%
    10:00 +23°C° 0 mm 2 mps 728 mmHg 35%
    11:00 +25°C° 0 mm 2 mps 728 mmHg 30%
    12:00 +26°C° 0 mm 3 mps 727 mmHg 29%
    13:00 +27°C° 0 mm 4 mps 727 mmHg 29%
    14:00 +28°C° 0 mm 4 mps 726 mmHg 28%
    15:00 +27°C° 0 mm 4 mps 726 mmHg 33%
    16:00 +26°C° 0 mm 4 mps 725 mmHg 37%
    17:00 +25°C° 0 mm 4 mps 725 mmHg 42%
    18:00 +22°C° 0 mm 3 mps 724 mmHg 50%
    19:00 +20°C° 0 mm 2 mps 724 mmHg 57%
    20:00 +18°C° 0 mm 2 mps 724 mmHg 65%
    21:00 +18°C° 0 mm 2 mps 723 mmHg 66%
    22:00 +18°C° 0 mm 2 mps 723 mmHg 67%
    23:00 +18°C° 0 mm 2 mps 723 mmHg 68%
    Show more